WetterOnline ( https://www.wetteronline.de )

Wetter aktuell Wunsiedel

Aktuelles Wetter: Wunsiedel-Schönbrunn (622m)

6-stündlich | Neueste Meldungen
Ortszeit Temperatur Wetter
So, 03.03. 19:00 7.0° C wolkig
So, 03.03. 13:00 10.7° C wolkig
So, 03.03. 7:00 5.0° C bedeckt
So, 03.03. 1:00 3.5° C Nebel
Sa, 02.03. 19:00 5.9° C bewölkt
Sa, 02.03. 13:00 6.2° C bedeckt
Sa, 02.03. 7:00 3.9° C Sprühregen
Sa, 02.03. 1:00 4.3° C wolkig
Ortszeit Temperatur Wetter
So, 03.03. 23:00 4.3° C wolkig
So, 03.03. 22:50 4.3° C Dunst
So, 03.03. 22:40 4.0° C Dunst
So, 03.03. 22:30 4.5° C wolkig
So, 03.03. 22:20 4.5° C Dunst
So, 03.03. 22:10 4.5° C Dunst
So, 03.03. 22:00 4.6° C wolkig
So, 03.03. 21:30 4.9° C Dunst
So, 03.03. 21:00 5.1° C wolkig
So, 03.03. 20:30 5.7° C wolkig
So, 03.03. 20:00 5.9° C wolkig
Ortszeit Relative Feuchte Sichtweite
So, 03.03. 19:00 85% 21 km
So, 03.03. 13:00 68% 30 km
So, 03.03. 7:00 92% 9 km
So, 03.03. 1:00 100% 0.6 km
Sa, 02.03. 19:00 87% 23 km
Sa, 02.03. 13:00 89% 11 km
Sa, 02.03. 7:00 99% 3.9 km
Sa, 02.03. 1:00 93% 20 km
Ortszeit Relative Feuchte Sichtweite
So, 03.03. 23:00 97% 5.0 km
So, 03.03. 22:50 97% -
So, 03.03. 22:40 97% -
So, 03.03. 22:30 97% 5.0 km
So, 03.03. 22:20 97% -
So, 03.03. 22:10 96% -
So, 03.03. 22:00 96% 6 km
So, 03.03. 21:30 94% -
So, 03.03. 21:00 92% 9 km
So, 03.03. 20:30 89% 13 km
So, 03.03. 20:00 89% 14 km
Ortszeit Niederschlagsmenge Niederschlagsart
So, 03.03. 19:00 0.0 l/m2 in 12 Std. -
So, 03.03. 13:00 0.0 l/m2 in 6 Std. -
So, 03.03. 7:00 0.0 l/m2 in 12 Std. -
So, 03.03. 1:00 0.0 l/m2 in 6 Std. -
Sa, 02.03. 19:00 0.1 l/m2 in 12 Std. -
Sa, 02.03. 13:00 0.1 l/m2 in 6 Std. Regen
Sa, 02.03. 7:00 2 l/m2 in 12 Std. Regen
Sa, 02.03. 1:00 0.0 l/m2 in 6 Std. -
Ortszeit Niederschlagsmenge Niederschlagsart
So, 03.03. 23:00 0.0 l/m2 in 1 Std. -
So, 03.03. 22:50 keine Meldung -
So, 03.03. 22:40 keine Meldung -
So, 03.03. 22:30 0.0 l/m2 in 30 Min -
So, 03.03. 22:20 keine Meldung -
So, 03.03. 22:10 keine Meldung -
So, 03.03. 22:00 0.0 l/m2 in 1 Std. -
So, 03.03. 21:30 0.0 l/m2 in 30 Min -
So, 03.03. 21:00 0.0 l/m2 in 1 Std. -
So, 03.03. 20:30 0.0 l/m2 in 30 Min -
So, 03.03. 20:00 0.0 l/m2 in 1 Std. -
Ortszeit Stärke Spitze Richtung
km/h Bft. km/h Grad Sektor
So, 03.03. 19:00 9 2 28 50° NO
So, 03.03. 13:00 13 3 26 100° O
So, 03.03. 7:00 11 2 24 90° O
So, 03.03. 1:00 6 1 19 50° NO
Sa, 02.03. 19:00 15 3 28 100° O
Sa, 02.03. 13:00 13 3 26 210° SW
Sa, 02.03. 7:00 11 2 22 200° S
Sa, 02.03. 1:00 9 2 13 230° SW
Ortszeit Stärke Spitze Richtung
km/h Bft. km/h Grad Sektor
So, 03.03. 23:00 4 1 11 50° NO
So, 03.03. 22:50 4 1 - 50° NO
So, 03.03. 22:40 4 1 - 30° NO
So, 03.03. 22:30 7 2 9 50° NO
So, 03.03. 22:20 7 2 - 50° NO
So, 03.03. 22:10 6 1 - 50° NO
So, 03.03. 22:00 6 1 13 50° NO
So, 03.03. 21:30 7 2 13 60° NO
So, 03.03. 21:00 9 2 15 50° NO
So, 03.03. 20:30 11 2 14 50° NO
So, 03.03. 20:00 9 2 13 30° NO
Ortszeit Untergrenze Bedeckung Gattung
total tief tief mittel hoch
So, 03.03. 19:00 9000 m 8/8 0/8 - - -
So, 03.03. 13:00 9000 m 8/8 0/8 - - -
So, 03.03. 7:00 330 m 8/8 8/8 - - -
So, 03.03. 1:00 330 m 4/8 4/8 - - -
Sa, 02.03. 19:00 300 m 7/8 7/8 - - -
Sa, 02.03. 13:00 210 m 8/8 8/8 - - -
Sa, 02.03. 7:00 60 m 8/8 8/8 - - -
Sa, 02.03. 1:00 990 m 7/8 3/8 - - -
Ortszeit Bedeckungsgrad in Achtel und Wolkenuntergrenze
So, 03.03. 23:00 8(8100m)
So, 03.03. 22:50 8(8100m)
So, 03.03. 22:40 8
So, 03.03. 22:30 1(7800m) 8(8400m)
So, 03.03. 22:20 1(7800m) 8(8400m)
So, 03.03. 22:10 8
So, 03.03. 22:00 8(7200m) 8(8700m)
So, 03.03. 21:30 6(7500m) 8(8100m) 8(8700m)
So, 03.03. 21:00 7(7500m) 8(8400m)
So, 03.03. 20:30 7(7800m) 7(8700m) 8(9000m)
So, 03.03. 20:00 8(8100m) 8(9000m)
Ortszeit Luftdruck NN (hPa) Tendenz (hPa in 3 Std.)
So, 03.03. 19:00 1003 + 0,8
So, 03.03. 13:00 1002 - 0,7
So, 03.03. 7:00 1004 - 0,1
So, 03.03. 1:00 1006 - 1,0
Sa, 02.03. 19:00 1007 0,0
Sa, 02.03. 13:00 1008 0,0
Sa, 02.03. 7:00 1008 + 0,6
Sa, 02.03. 1:00 1007 - 0,7
Ortszeit Luftdruck NN (hPa) Tendenz (hPa in 3 Std.)
So, 03.03. 23:00 1005 + 0,7
So, 03.03. 22:50 1005 keine Meldung
So, 03.03. 22:40 1005 keine Meldung
So, 03.03. 22:30 1005 + 0,9
So, 03.03. 22:20 1005 keine Meldung
So, 03.03. 22:10 1005 keine Meldung
So, 03.03. 22:00 1005 + 0,8
So, 03.03. 21:30 1004 + 0,8
So, 03.03. 21:00 1004 + 1,1
So, 03.03. 20:30 1004 + 1,2
So, 03.03. 20:00 1004 + 1,0
Ortszeit Schneehöhe (cm)
So, 03.03. 19:00 0
So, 03.03. 13:00 0
So, 03.03. 7:00 0
So, 03.03. 1:00 0
Sa, 02.03. 19:00 0
Sa, 02.03. 13:00 0
Sa, 02.03. 7:00 0
Sa, 02.03. 1:00 0
Ortszeit Schneehöhe (cm)
So, 03.03. 23:00 0
So, 03.03. 22:50 0
So, 03.03. 22:40 -
So, 03.03. 22:30 0
So, 03.03. 22:20 0
So, 03.03. 22:10 -
So, 03.03. 22:00 0
So, 03.03. 21:30 0
So, 03.03. 21:00 0
So, 03.03. 20:30 0
So, 03.03. 20:00 0
Link zu dieser Seite / Seite empfehlen

Das Wetter in ...